Location: Antichan
(42.9728°N, 0.6667°E)
Time: 17:11:47
(UTC+00:00)

Cosmos 540 Rocket - Pass Details

Date: 15 August 2020
Orbit: 740 x 754 km, 74.1° (Epoch: 18 September)

Event Time Altitude Azimuth Distance (km) Brightness Sun altitude
Rises 21:36:24 0° 337° (NNW) 3,213 8.0 -24.3°
Reaches altitude 10° 21:38:47 10° 336° (NNW) 2,285 6.9 -24.6°
Maximum altitude 21:43:56 73° 253° (WSW) 792 3.5 -25.2°
Enters shadow 21:44:30 66° 207° (SSW) 825 3.4 -25.2°
